Regional Weather Roundup
Issued by NWS

Home | Current Version | Previous Version | Text Only | Print | Product List | Glossary On
Versions: 1 2 3 4 5 6 7 8 9 10 11 12 13 14 15 16 17 18 19 20 21 22 23 24 25 26 27 28 29 30 31 32 33 34 35 36 37 38 39 40 41 42 43 44 45 46 47 48 49 50
685
ASUS43 KTOP 250259
RWRKS

WEATHER ROUNDUP FOR KANSAS
NATIONAL WEATHER SERVICE GOODLAND KS
1000 PM CDT TUE MAY 24 2016

NOTE:  "FAIR" INDICATES FEW OR NO CLOUDS BELOW 12,000 FEET WITH NO
SIGNIFICANT WEATHER AND/OR OBSTRUCTIONS TO VISIBILITY.

KSZ001>006-013>018-027>032-041>047-250400-
NORTHWEST KANSAS

CITY           SKY/WX    TMP DP  RH WIND       PRES   REMARKS
GOODLAND       CLEAR     65  56  72 SE20      29.77R
HAYS           CLOUDY    59  52  77 SE22      29.78S
HILL CITY      CLOUDY    67  55  65 SE12      29.77S
RUSSELL        LGT RAIN  62  57  83 E24       29.77F
$$

KSZ061>065-074>080-084>089-250400-
SOUTHWEST KANSAS

CITY           SKY/WX    TMP DP  RH WIND       PRES   REMARKS
DODGE CITY     CLOUDY    69  56  62 SE12      29.78S
ELKHART          N/A     73  65  76 S15         N/A
GARDEN CITY    CLOUDY    74  58  57 SE13      29.75R
GREAT BEND     CLOUDY    63  55  77 E18G28    29.83F
LIBERAL        CLEAR     73  63  68 S17G23    29.77R
$$

KSZ066>073-081>083-090>101-250400-
SOUTHEAST KANSAS

CITY           SKY/WX    TMP DP  RH WIND       PRES   REMARKS
CHANUTE        CLEAR     74  66  76 SE10      29.87R
COFFEYVILLE    CLEAR     72  68  87 S6        29.88R
HUTCHINSON     TSTM      70  65  84 W38G47    29.90R
MEDICINE LODGE   N/A     76  67  73 S17G28    29.81R
NEWTON         CLOUDY    73  64  73 S12G18    29.89F THUNDER
PARSONS        CLOUDY    73  69  87 SE5       29.89R
WICHITA INTL   LGT RAIN  75  62  64 SE16G23   29.83R
WICHITA JABRA  LGT RAIN  74  66  76 S12       29.85R
WICHITA MCCONL LGT RAIN  75  64  69 S15G21    29.85R
WINFIELD       CLOUDY    73  59  61 S16       29.87R THUNDER
$$

KSZ007>012-019>026-033>040-048>060-102>105-250400-
NORTHEAST KANSAS

CITY           SKY/WX    TMP DP  RH WIND       PRES   REMARKS
CONCORDIA      LGT RAIN  71  67  87 NE3       29.84R
EMPORIA        CLOUDY    73  69  87 SE9       29.86R
LAWRENCE       CLEAR     73  69  87 SE8       29.87S
MANHATTAN      CLOUDY    77  69  76 S6        29.84R
OLATHE IND     PTCLDY    73  70  90 SE10      29.90R
OLATHE EXE     MOCLDY    73  68  84 SE12      29.90R
SALINA         TSTM      77  71  82 S15       29.86R
TOPEKA BILLARD PTCLDY    75  70  84 E7        29.85S
TOPEKA FORBES  CLOUDY    75  70  84 SE7       29.86S
$$




USA.gov is the U.S. government's official web portal to all federal, state and local government web resources and services.